• In Hungary
  • List of Countries
  • For 7 days
  • Water Temperature
  • Satellite Maps
  • Weather Map
  • News
  • Weather Widgets
  • user-avatar
    Login

    Hourly Weather Ocotal

    Today, 16 October, Tuesday

    Time Temperature Precipitation Wind Pressure Humidity
    00:00 +21°C° 0 mm 0 mps 706 mmHg 95%
    01:00 +21°C° 0.6 mm 0 mps 706 mmHg 95%
    02:00 +21°C° 0.6 mm 0 mps 705 mmHg 95%
    03:00 +21°C° 0.6 mm 0 mps 705 mmHg 95%
    04:00 +21°C° 0.6 mm 0 mps 706 mmHg 95%
    05:00 +21°C° 0.6 mm 0 mps 706 mmHg 96%
    06:00 +21°C° 0.6 mm 0 mps 706 mmHg 96%
    07:00 +22°C° 0.4 mm 0 mps 706 mmHg 93%
    08:00 +25°C° 0.4 mm 1 mps 707 mmHg 90%
    09:00 +26°C° 0.4 mm 1 mps 707 mmHg 87%
    10:00 +26°C° 1.1 mm 1 mps 707 mmHg 86%
    11:00 +27°C° 1.1 mm 1 mps 706 mmHg 85%
    12:00 +27°C° 1.1 mm 1 mps 706 mmHg 84%
    13:00 +27°C° 2.7 mm 1 mps 706 mmHg 87%
    14:00 +26°C° 2.7 mm 1 mps 705 mmHg 90%
    15:00 +26°C° 2.7 mm 1 mps 705 mmHg 93%
    16:00 +25°C° 3.1 mm 1 mps 705 mmHg 94%
    17:00 +24°C° 3.1 mm 1 mps 705 mmHg 95%
    18:00 +24°C° 3.1 mm 1 mps 705 mmHg 96%
    19:00 +23°C° 4.8 mm 1 mps 706 mmHg 96%
    20:00 +23°C° 4.8 mm 1 mps 706 mmHg 97%
    21:00 +23°C° 4.8 mm 1 mps 707 mmHg 97%
    22:00 +23°C° 5.3 mm 1 mps 707 mmHg 97%
    23:00 +23°C° 5.3 mm 1 mps 707 mmHg 97%

    Tomorrow, 17 October, Wednesday

    Time Temperature Precipitation Wind Pressure Humidity
    00:00 +23°C° 5.3 mm 1 mps 707 mmHg 97%
    01:00 +23°C° 3.7 mm 1 mps 706 mmHg 97%
    02:00 +23°C° 3.7 mm 1 mps 706 mmHg 97%
    03:00 +23°C° 3.7 mm 1 mps 706 mmHg 97%
    04:00 +23°C° 1.1 mm 1 mps 706 mmHg 97%
    05:00 +22°C° 1.1 mm 1 mps 706 mmHg 97%
    06:00 +22°C° 1.1 mm 1 mps 706 mmHg 97%
    07:00 +23°C° 0.8 mm 1 mps 707 mmHg 96%
    08:00 +23°C° 0.8 mm 1 mps 707 mmHg 95%
    09:00 +24°C° 0.8 mm 1 mps 708 mmHg 94%
    10:00 +24°C° 0.7 mm 1 mps 707 mmHg 93%
    11:00 +24°C° 0.7 mm 1 mps 707 mmHg 92%
    12:00 +24°C° 0.7 mm 1 mps 707 mmHg 91%
    13:00 +24°C° 1 mm 1 mps 706 mmHg 91%
    14:00 +24°C° 1 mm 1 mps 706 mmHg 91%
    15:00 +25°C° 1 mm 1 mps 705 mmHg 91%
    16:00 +24°C° 0.5 mm 1 mps 705 mmHg 93%
    17:00 +23°C° 0.5 mm 1 mps 706 mmHg 94%
    18:00 +23°C° 0.5 mm 1 mps 706 mmHg 95%
    19:00 +22°C° 0.1 mm 1 mps 706 mmHg 95%
    20:00 +22°C° 0.1 mm 1 mps 707 mmHg 96%
    21:00 +22°C° 0.1 mm 1 mps 708 mmHg 96%
    22:00 +22°C° 0.4 mm 1 mps 707 mmHg 96%
    23:00 +22°C° 0.4 mm 1 mps 707 mmHg 96%

    Day after tomorrow, 18 October, Thursday

    Time Temperature Precipitation Wind Pressure Humidity
    00:00 +22°C° 0.4 mm 1 mps 707 mmHg 96%
    01:00 +22°C° 0.1 mm 1 mps 707 mmHg 97%
    02:00 +22°C° 0.1 mm 1 mps 706 mmHg 97%
    03:00 +22°C° 0.1 mm 1 mps 706 mmHg 97%
    04:00 +22°C° 0 mm 1 mps 706 mmHg 97%
    05:00 +22°C° 0 mm 1 mps 706 mmHg 97%
    06:00 +22°C° 0 mm 1 mps 707 mmHg 97%
    07:00 +23°C° 0 mm 1 mps 707 mmHg 93%
    08:00 +24°C° 0 mm 1 mps 708 mmHg 88%
    09:00 +25°C° 0 mm 2 mps 709 mmHg 84%
    10:00 +26°C° 0.2 mm 2 mps 708 mmHg 84%
    11:00 +26°C° 0.2 mm 2 mps 708 mmHg 84%
    12:00 +26°C° 0.2 mm 2 mps 707 mmHg 84%
    13:00 +25°C° 0.6 mm 2 mps 707 mmHg 87%
    14:00 +25°C° 0.6 mm 2 mps 706 mmHg 90%
    15:00 +24°C° 0.6 mm 2 mps 705 mmHg 94%
    16:00 +23°C° 0.3 mm 1 mps 706 mmHg 94%
    17:00 +23°C° 0.3 mm 1 mps 706 mmHg 95%
    18:00 +22°C° 0.3 mm 1 mps 706 mmHg 96%
    19:00 +22°C° 0.1 mm 1 mps 707 mmHg 96%
    20:00 +22°C° 0.1 mm 1 mps 708 mmHg 96%
    21:00 +22°C° 0.1 mm 1 mps 708 mmHg 96%
    22:00 +22°C° 0 mm 1 mps 708 mmHg 96%
    23:00 +22°C° 0 mm 1 mps 708 mmHg 96%

    19 October, Friday

    Time Temperature Precipitation Wind Pressure Humidity
    00:00 +21°C° 0 mm 1 mps 708 mmHg 96%
    01:00 +21°C° 0.1 mm 1 mps 708 mmHg 96%
    02:00 +21°C° 0.1 mm 1 mps 707 mmHg 96%
    03:00 +21°C° 0.1 mm 1 mps 707 mmHg 96%
    04:00 +21°C° 0.1 mm 1 mps 707 mmHg 96%
    05:00 +21°C° 0.1 mm 1 mps 707 mmHg 96%
    06:00 +21°C° 0.1 mm 1 mps 707 mmHg 96%
    07:00 +23°C° 0 mm 1 mps 708 mmHg 92%
    08:00 +24°C° 0 mm 1 mps 709 mmHg 88%
    09:00 +26°C° 0 mm 2 mps 709 mmHg 84%
    10:00 +27°C° 0 mm 2 mps 709 mmHg 79%
    11:00 +28°C° 0 mm 2 mps 708 mmHg 74%
    12:00 +29°C° 0 mm 2 mps 708 mmHg 69%
    13:00 +29°C° 0.4 mm 2 mps 707 mmHg 71%
    14:00 +29°C° 0.4 mm 2 mps 706 mmHg 72%
    15:00 +29°C° 0.4 mm 1 mps 706 mmHg 74%
    16:00 +27°C° 1.1 mm 1 mps 706 mmHg 81%
    17:00 +25°C° 1.1 mm 1 mps 706 mmHg 87%
    18:00 +24°C° 1.1 mm 1 mps 706 mmHg 94%
    19:00 +23°C° 0.2 mm 1 mps 707 mmHg 94%
    20:00 +23°C° 0.2 mm 1 mps 707 mmHg 95%
    21:00 +23°C° 0.2 mm 1 mps 708 mmHg 95%
    22:00 +23°C° 0.1 mm 1 mps 708 mmHg 96%
    23:00 +23°C° 0.1 mm 1 mps 707 mmHg 96%

    20 October, Saturday

    Time Temperature Precipitation Wind Pressure Humidity
    00:00 +22°C° 0.1 mm 1 mps 707 mmHg 96%
    01:00 +22°C° 0 mm 1 mps 707 mmHg 96%
    02:00 +22°C° 0 mm 1 mps 706 mmHg 96%
    03:00 +22°C° 0 mm 1 mps 706 mmHg 96%
    04:00 +22°C° 0 mm 1 mps 706 mmHg 96%
    05:00 +22°C° 0 mm 1 mps 707 mmHg 96%
    06:00 +22°C° 0 mm 1 mps 707 mmHg 96%
    07:00 +24°C° 0 mm 1 mps 707 mmHg 91%
    08:00 +25°C° 0 mm 2 mps 708 mmHg 86%
    09:00 +27°C° 0 mm 2 mps 709 mmHg 80%
    10:00 +28°C° 0.2 mm 2 mps 708 mmHg 76%
    11:00 +29°C° 0.2 mm 2 mps 707 mmHg 71%
    12:00 +30°C° 0.2 mm 2 mps 707 mmHg 66%
    13:00 +29°C° 1.8 mm 2 mps 706 mmHg 73%
    14:00 +28°C° 1.8 mm 2 mps 705 mmHg 80%
    15:00 +27°C° 1.8 mm 2 mps 705 mmHg 87%
    16:00 +26°C° 1.5 mm 2 mps 705 mmHg 90%
    17:00 +25°C° 1.5 mm 2 mps 706 mmHg 92%
    18:00 +23°C° 1.5 mm 1 mps 706 mmHg 95%
    19:00 +23°C° 0.5 mm 1 mps 707 mmHg 96%
    20:00 +23°C° 0.5 mm 1 mps 707 mmHg 96%
    21:00 +23°C° 0.5 mm 1 mps 708 mmHg 96%
    22:00 +23°C° 0.2 mm 1 mps 707 mmHg 96%
    23:00 +22°C° 0.2 mm 1 mps 707 mmHg 96%

    21 October, Sunday

    Time Temperature Precipitation Wind Pressure Humidity
    00:00 +22°C° 0.2 mm 1 mps 707 mmHg 96%
    01:00 +22°C° 0 mm 1 mps 707 mmHg 96%
    02:00 +22°C° 0 mm 1 mps 707 mmHg 96%
    03:00 +22°C° 0 mm 1 mps 706 mmHg 96%
    04:00 +22°C° 0 mm 1 mps 707 mmHg 96%
    05:00 +22°C° 0 mm 1 mps 707 mmHg 96%
    06:00 +21°C° 0 mm 1 mps 707 mmHg 96%
    07:00 +23°C° 0 mm 2 mps 708 mmHg 90%
    08:00 +25°C° 0 mm 2 mps 708 mmHg 83%
    09:00 +26°C° 0 mm 3 mps 709 mmHg 77%
    10:00 +27°C° 0 mm 3 mps 708 mmHg 71%
    11:00 +28°C° 0 mm 3 mps 707 mmHg 64%
    12:00 +30°C° 0 mm 3 mps 707 mmHg 58%
    13:00 +30°C° 0 mm 3 mps 706 mmHg 59%
    14:00 +30°C° 0 mm 3 mps 706 mmHg 60%
    15:00 +30°C° 0 mm 2 mps 705 mmHg 62%
    16:00 +28°C° 0.1 mm 2 mps 706 mmHg 70%
    17:00 +26°C° 0.1 mm 2 mps 706 mmHg 78%
    18:00 +24°C° 0.1 mm 1 mps 706 mmHg 86%
    19:00 +23°C° 0 mm 1 mps 707 mmHg 87%
    20:00 +23°C° 0 mm 1 mps 707 mmHg 89%
    21:00 +22°C° 0 mm 1 mps 708 mmHg 91%
    22:00 +22°C° 0 mm 1 mps 707 mmHg 92%
    23:00 +21°C° 0 mm 1 mps 707 mmHg 93%
    Show more